📊 Raw Sensor Data
Showing records 43851 to 43875 of 85,024 total
| ID | Distance (ft) | Battery V | Battery A | Int Temp (°F) | Int Humid (%) | Ext Temp (°F) | Solar V | RSSI | SNR | Time Stamp |
|---|---|---|---|---|---|---|---|---|---|---|
| 41186 | 15.2 | 3.95 | -5 | 61 | 45 | 62 | 0.00 | -69 | 7 | 05/20/2025 10:45 PM |
| 41185 | 15.2 | 3.95 | -5 | 61 | 45 | 62 | 0.00 | -69 | 7 | 05/20/2025 10:30 PM |
| 41184 | 15.2 | 3.95 | -5 | 62 | 46 | 63 | 0.00 | -70 | 8 | 05/20/2025 10:15 PM |
| 41183 | 15.2 | 3.95 | -5 | 62 | 46 | 64 | 0.10 | -69 | 7 | 05/20/2025 10:00 PM |
| 41182 | 15.2 | 3.95 | -5 | 63 | 47 | 65 | 0.00 | -69 | 7 | 05/20/2025 09:45 PM |
| 41181 | 15.2 | 3.96 | -5 | 64 | 48 | 65 | 0.00 | -68 | 8 | 05/20/2025 09:30 PM |
| 41180 | 15.2 | 3.96 | -5 | 64 | 49 | 65 | 0.00 | -70 | 8 | 05/20/2025 09:15 PM |
| 41179 | 15.2 | 3.89 | -5 | 66 | 50 | 66 | 0.00 | -68 | 8 | 05/20/2025 09:00 PM |
| 41178 | 15.4 | 3.89 | -5 | 67 | 53 | 66 | 0.00 | -68 | 8 | 05/20/2025 08:45 PM |
| 41177 | 15.5 | 3.89 | -5 | 69 | 54 | 68 | 0.50 | -67 | 8 | 05/20/2025 08:30 PM |
| 41176 | 15.5 | 3.88 | -12 | 73 | 54 | 70 | 3.20 | -68 | 8 | 05/20/2025 08:15 PM |
| 41175 | 15.5 | 3.90 | 0 | 78 | 53 | 74 | 4.50 | -68 | 7 | 05/20/2025 08:00 PM |
| 41174 | 15.6 | 3.98 | 0 | 82 | 52 | 78 | 4.50 | -68 | 8 | 05/20/2025 07:45 PM |
| 41173 | 15.6 | 3.99 | 7 | 85 | 52 | 79 | 4.50 | -69 | 8 | 05/20/2025 07:30 PM |
| 41172 | 15.6 | 4.00 | 10 | 88 | 51 | 82 | 4.50 | -67 | 8 | 05/20/2025 07:15 PM |
| 41171 | 15.6 | 4.02 | 0 | 90 | 51 | 81 | 4.50 | -69 | 8 | 05/20/2025 07:00 PM |
| 41170 | 15.6 | 3.99 | 8 | 92 | 50 | 84 | 4.60 | -68 | 7 | 05/20/2025 06:45 PM |
| 41169 | 15.6 | 3.95 | 0 | 94 | 49 | 84 | 5.10 | -67 | 8 | 05/20/2025 06:30 PM |
| 41168 | 15.6 | 4.12 | 0 | 95 | 49 | 86 | 5.10 | -68 | 8 | 05/20/2025 06:15 PM |
| 41167 | 15.6 | 3.95 | 0 | 97 | 47 | 88 | 5.10 | -68 | 8 | 05/20/2025 06:00 PM |
| 41166 | 15.6 | 3.94 | 0 | 99 | 46 | 87 | 5.10 | -69 | 8 | 05/20/2025 05:45 PM |
| 41165 | 15.6 | 4.08 | 0 | 98 | 45 | 88 | 5.10 | -69 | 7 | 05/20/2025 05:30 PM |
| 41164 | 15.5 | 3.94 | 0 | 98 | 45 | 87 | 5.10 | -69 | 8 | 05/20/2025 05:15 PM |
| 41163 | 15.5 | 3.94 | 0 | 99 | 44 | 87 | 5.10 | -69 | 8 | 05/20/2025 05:00 PM |
| 41162 | 15.5 | 3.94 | 0 | 98 | 43 | 87 | 5.10 | -69 | 7 | 05/20/2025 04:45 PM |